M I D A S
Marine Information and Data Acquisition System
Tripno 505 of the Zeeleeuw from 2003-05-26 06:40:15 to 2003-05-26 16:43:07
Back to CruiseResearch ActivitiesStationsMapUnderway DataData graphs

EquipmentUnitsComments
TimeDGPSUTC
LatitudeDGPSDM.mWGS84
LongitudeDGPSDM.mWGS84
SpeedMeteo Stationm/sRelative wind speed
DirectionMeteo StationdegRelative wind direction
TemperatureMeteo Stationdeg CelciusAir temperature
PressureMeteo StationPaAtmospheric pressure
HumidityMeteo Station%Relative humidity
Missing or incorrect values are displayed as -999
Metereological data collected by the RV Zeeleeuw from 2003-05-26 06:40:15 to 2003-05-26 16:43:07
Time Latitude Longitude Speed Direction Temperature Pressure Humidity
2003-05-26 06:41 51°13.6 2°56.1 1.1   12.3 102200 89
2003-05-26 06:42 51°13.62 2°56.05 3.7   12.3 102210 89
2003-05-26 06:43 51°13.64 2°55.93 3.2   12.2 102210 88
2003-05-26 06:44 51°13.67 2°55.82 2.5   12.3 102210 88
2003-05-26 06:45 51°13.68 2°55.76 0.9   12.3 102210 88
2003-05-26 06:46 51°13.7 2°55.79 2.2   12.4 102210 88
2003-05-26 06:47 51°13.7 2°55.79 1.1   12.5 102210 88
2003-05-26 06:48 51°13.7 2°55.78 2.2   12.6 102210 88
2003-05-26 06:49 51°13.75 2°55.72 4.9   12.8 102210 87
2003-05-26 06:50 51°13.84 2°55.63 4   12.9 102200 87
2003-05-26 06:51 51°13.95 2°55.55 4.1   12.9 102200 86
2003-05-26 06:52 51°14.07 2°55.46 5   13 102200 86
2003-05-26 06:53 51°14.18 2°55.36 5.1   13 102200 85
2003-05-26 06:54 51°14.28 2°55.22 6.2   13 102200 85
2003-05-26 06:55 51°14.37 2°55.06 5.2   12.9 102200 85
2003-05-26 06:56 51°14.5 2°54.98 5   12.7 102200 84
2003-05-26 06:57 51°14.67 2°54.94 4.6   12.7 102210 84
2003-05-26 06:58 51°14.84 2°54.91 4.2   12.6 102200 85
2003-05-26 06:59 51°15.02 2°54.88 4   12.6 102210 85
2003-05-26 07:00 51°15.2 2°54.89 4.5   12.6 102200 85
2003-05-26 07:01 51°15.39 2°54.87 4.1   12.6 102200 85
2003-05-26 07:02 51°15.58 2°54.87 4.3   12.6 102200 85
2003-05-26 07:03 51°15.77 2°54.86 3.9   12.6 102210 85
2003-05-26 07:04 51°15.96 2°54.83 4.5   12.5 102210 85
2003-05-26 07:05 51°16.13 2°54.74 5.4   12.6 102200 85
2003-05-26 07:06 51°16.18 2°54.6 5.3   12.6 102210 85
2003-05-26 07:07 51°16.2 2°54.5 4.1   12.6 102200 86
2003-05-26 07:08 51°16.23 2°54.41 4.5   12.6 102200 86
2003-05-26 07:09 51°16.27 2°54.3 3.8   12.7 102200 86
2003-05-26 07:10 51°16.28 2°54.28 2.8   12.7 102210 86
2003-05-26 07:11 51°16.29 2°54.27 2.7   12.8 102210 86
2003-05-26 07:12 51°16.3 2°54.27 3.1   12.8 102210 86
2003-05-26 07:13 51°16.3 2°54.27 3.1   12.9 102210 86
2003-05-26 07:14 51°16.31 2°54.27 2.9   13 102220 86
2003-05-26 07:15 51°16.32 2°54.27 2.8   13 102220 86
2003-05-26 07:16 51°16.32 2°54.28 2.8   13.1 102210 86
2003-05-26 07:17 51°16.33 2°54.29 2.6   13.2 102220 86
2003-05-26 07:18 51°16.34 2°54.3 3   13.2 102220 86
2003-05-26 07:19 51°16.34 2°54.31 2.7   13.3 102220 86
2003-05-26 07:20 51°16.34 2°54.3 4.2   13.3 102220 86
2003-05-26 07:21 51°16.35 2°54.21 5.6   13.2 102220 86
2003-05-26 07:22 51°16.42 2°54.03 6.3   13.1 102220 86
2003-05-26 07:23 51°16.5 2°53.81 6.5   13.1 102220 86
2003-05-26 07:24 51°16.59 2°53.61 6.3   13.1 102220 86
2003-05-26 07:25 51°16.71 2°53.44 6   13.1 102220 86
2003-05-26 07:26 51°16.83 2°53.25 7.2   13 102220 86
2003-05-26 07:27 51°16.97 2°53.03 7.8   13 102220 86
2003-05-26 07:28 51°17.12 2°52.8 7.8   13 102220 86
2003-05-26 07:29 51°17.28 2°52.57 7.9   13 102220 86
2003-05-26 07:30 51°17.43 2°52.34 8.4   13 102220 86
2003-05-26 07:31 51°17.59 2°52.11 7.9   13.1 102220 86
2003-05-26 07:32 51°17.76 2°51.91 7.3   13.1 102220 86
2003-05-26 07:33 51°17.94 2°51.73 7.6   13.1 102220 85
2003-05-26 07:34 51°18.13 2°51.55 7.5   13.1 102220 85
2003-05-26 07:35 51°18.3 2°51.38 5.5   13.1 102230 85
2003-05-26 07:36 51°18.41 2°51.27 5.2   13.1 102230 85
2003-05-26 07:37 51°18.45 2°51.13 4.7   13.1 102230 85
2003-05-26 07:38 51°18.47 2°51.02 3.1   13.1 102230 85
2003-05-26 07:39 51°18.49 2°51.01 2.6   13.2 102230 85
2003-05-26 07:40 51°18.51 2°51.02 2.6   13.1 102230 85
2003-05-26 07:41 51°18.53 2°51.03 2.6   13 102230 85
2003-05-26 07:42 51°18.55 2°51.03 2.8   13.1 102240 85
2003-05-26 07:43 51°18.57 2°51.03 2.9   13.2 102240 85
2003-05-26 07:44 51°18.57 2°51.02 2.8   13.2 102240 85
2003-05-26 07:45 51°18.58 2°51.02 2.7   13.2 102240 85
2003-05-26 07:46 51°18.58 2°51.02 2.7   13.3 102240 85
2003-05-26 07:47 51°18.57 2°51.03 2.7   13.2 102240 84
2003-05-26 07:48 51°18.56 2°51.04 2.5   13.1 102240 84
2003-05-26 07:49 51°18.54 2°51.04 4.2   13 102240 85
2003-05-26 07:50 51°18.52 2°50.96 4.6   12.9 102240 85
2003-05-26 07:51 51°18.57 2°50.89 3.8   12.9 102230 86
2003-05-26 07:52 51°18.71 2°50.94 5.5   13 102230 86
2003-05-26 07:53 51°18.88 2°51.18 5.1   13 102240 86
2003-05-26 07:54 51°18.97 2°51.55 4.9   13.1 102240 86
2003-05-26 07:55 51°19.03 2°51.93 4.9   13 102240 86
2003-05-26 07:56 51°19.1 2°52.3 5.3   13.1 102240 86
2003-05-26 07:57 51°19.16 2°52.68 4.7   13.1 102240 86
2003-05-26 07:58 51°19.23 2°53.06 5   13.1 102240 86
2003-05-26 07:59 51°19.3 2°53.43 5   13.1 102240 85
2003-05-26 08:00 51°19.38 2°53.8 4.9   13.1 102250 85
2003-05-26 08:01 51°19.46 2°54.18 4.8   13.1 102240 85
2003-05-26 08:02 51°19.53 2°54.55 5.3   13.1 102240 85
2003-05-26 08:03 51°19.6 2°54.93 4.9   13.2 102240 85
2003-05-26 08:04 51°19.68 2°55.31 5   13.2 102250 85
2003-05-26 08:05 51°19.75 2°55.68 5   13.2 102250 85
2003-05-26 08:06 51°19.82 2°56.06 4.7   13.2 102250 85
2003-05-26 08:07 51°19.9 2°56.44 5.6   13.2 102240 85
2003-05-26 08:08 51°19.98 2°56.83 5   13.2 102240 85
2003-05-26 08:09 51°20.05 2°57.21 4.7   13.2 102250 85
2003-05-26 08:10 51°20.13 2°57.59 5   13.2 102240 85
2003-05-26 08:11 51°20.2 2°57.98 5.2   13.3 102250 85
2003-05-26 08:12 51°20.28 2°58.36 5.1   13.3 102250 85
2003-05-26 08:13 51°20.36 2°58.74 5.6   13.3 102250 84
2003-05-26 08:14 51°20.44 2°59.12 5.1   13.3 102250 84
2003-05-26 08:15 51°20.51 2°59.51 4.9   13.3 102250 84
2003-05-26 08:16 51°20.58 2°59.9 4.9   13.3 102250 84
2003-05-26 08:17 51°20.65 3°0.29 4.8   13.4 102250 84
2003-05-26 08:18 51°20.72 3°0.68 4.7   13.4 102260 84
2003-05-26 08:19 51°20.81 3°1.12 4.8   13.4 102260 84
2003-05-26 08:20 51°20.9 3°1.67 4.9   13.4 102260 83
2003-05-26 08:21 51°20.98 3°2.07 5   13.5 102260 83
2003-05-26 08:22 51°21.05 3°2.5 5.3   13.5 102260 83
2003-05-26 08:24 51°21.15 3°2.97 5.3   13.5 102260 83
2003-05-26 08:25 51°21.23 3°3.36 5.3   13.4 102260 83
2003-05-26 08:26 51°21.32 3°3.83 5.1   13.5 102260 83
2003-05-26 08:27 51°21.42 3°4.32 5.3   13.5 102260 83
2003-05-26 08:28 51°21.5 3°4.72 5.3   13.5 102260 83
2003-05-26 08:29 51°21.61 3°5.23 5.2   13.5 102260 84
2003-05-26 08:30 51°21.68 3°5.63 5.4   13.5 102260 84
2003-05-26 08:31 51°21.75 3°6.02 5.5   13.5 102260 84
2003-05-26 08:33 51°21.82 3°6.49 5.3   13.5 102260 84
2003-05-26 08:34 51°21.88 3°6.94 5.3   13.5 102270 84
2003-05-26 08:35 51°21.93 3°7.39 5.4   13.5 102270 84
2003-05-26 08:36 51°21.98 3°7.8 5.5   13.4 102270 84
2003-05-26 08:37 51°22.04 3°8.26 5.4   13.4 102270 85
2003-05-26 08:38 51°22.1 3°8.78 5.4   13.4 102270 85
2003-05-26 08:39 51°22.14 3°9.19 5.4   13.4 102270 85
2003-05-26 08:40 51°22.19 3°9.62 2.4   13.5 102270 85
2003-05-26 08:41 51°22.22 3°9.85 0.9   13.5 102280 85
2003-05-26 08:42 51°22.23 3°10.05 1.9   13.6 102270 85
2003-05-26 08:43 51°22.21 3°10.36 5.5   13.6 102270 85
2003-05-26 08:45 51°22.28 3°10.84 5.6   13.5 102270 85
2003-05-26 08:46 51°22.36 3°11.25 5.6   13.6 102270 85
2003-05-26 08:47 51°22.44 3°11.67 5.5   13.6 102270 85
2003-05-26 08:48 51°22.54 3°12.17 5.5   13.6 102270 85
2003-05-26 08:49 51°22.6 3°12.58 3   13.6 102270 85
2003-05-26 08:50 51°22.64 3°12.84 1.9   13.7 102270 85
2003-05-26 08:51 51°22.66 3°13.07 1.5   13.8 102280 85
2003-05-26 08:52 51°22.65 3°13.29 1.7   14 102270 85
2003-05-26 08:53 51°22.6 3°13.36 3.1   14 102270 83
2003-05-26 08:54 51°22.56 3°13.35 3.3   13.8 102270 83
2003-05-26 08:55 51°22.59 3°13.28 4.5   13.7 102270 83
2003-05-26 08:56 51°22.6 3°13.23 3.4   13.7 102270 83
2003-05-26 08:57 51°22.6 3°13.24 2.8   13.7 102270 83
2003-05-26 08:58 51°22.6 3°13.26 2.7   13.6 102270 83
2003-05-26 08:59 51°22.59 3°13.28 2.4   13.6 102270 83
2003-05-26 09:00 51°22.59 3°13.31 2.5   13.5 102270 83
2003-05-26 09:01 51°22.57 3°13.34 2.8   13.4 102270 84
2003-05-26 09:03 51°22.56 3°13.37 2.7   13.3 102270 84
2003-05-26 09:04 51°22.56 3°13.38 2.9   13.4 102270 85
2003-05-26 09:05 51°22.57 3°13.39 2.8   13.4 102270 85
2003-05-26 09:06 51°22.59 3°13.41 2.9   13.5 102270 85
2003-05-26 09:07 51°22.62 3°13.44 3   13.6 102270 85
2003-05-26 09:08 51°22.65 3°13.45 3.6   13.7 102270 84
2003-05-26 09:09 51°22.72 3°13.43 6.2   13.7 102270 84
2003-05-26 09:10 51°22.88 3°13.41 7.7   13.7 102260 83
2003-05-26 09:11 51°23.09 3°13.41 7.8   13.7 102270 83
2003-05-26 09:12 51°23.27 3°13.47 5.9   13.8 102270 83
2003-05-26 09:13 51°23.4 3°13.67 4.5   13.8 102280 82
2003-05-26 09:14 51°23.5 3°13.87 4.8   13.9 102280 82
2003-05-26 09:15 51°23.59 3°14.05 4.7   14 102270 82
2003-05-26 09:16 51°23.69 3°14.24 4.3   14.1 102270 81
2003-05-26 09:17 51°23.8 3°14.46 4.3   14.1 102270 81
2003-05-26 09:18 51°23.9 3°14.62 4.3   14.1 102270 80
2003-05-26 09:19 51°23.98 3°14.7 4.2   14.1 102270 80
2003-05-26 09:20 51°24.05 3°14.73 4.5   14.1 102270 80
2003-05-26 09:21 51°24.13 3°14.72 5.8   14.1 102270 80
2003-05-26 09:22 51°24.27 3°14.62 9   14 102270 80
2003-05-26 09:23 51°24.49 3°14.61 9.4   13.9 102270 81
2003-05-26 09:24 51°24.73 3°14.67 8.7   13.8 102260 81
2003-05-26 09:25 51°24.95 3°14.86 7.1   13.8 102270 82
2003-05-26 09:26 51°25.09 3°15.21 6.5   13.8 102270 82
2003-05-26 09:27 51°25.22 3°15.55 6.8   13.8 102280 82
2003-05-26 09:28 51°25.37 3°15.98 6.5   13.8 102280 82
2003-05-26 09:29 51°25.49 3°16.32 6.3   13.9 102280 82
2003-05-26 09:30 51°25.61 3°16.66 6.6   13.9 102280 82
2003-05-26 09:31 51°25.74 3°17 6.2   13.9 102280 82
2003-05-26 09:32 51°25.84 3°17.34 5.2   13.9 102280 82
2003-05-26 09:33 51°25.83 3°17.56 1.7   14 102290 83
2003-05-26 09:34 51°25.77 3°17.61 3   14 102290 82
2003-05-26 09:35 51°25.75 3°17.63 2.7   13.9 102290 82
2003-05-26 09:36 51°25.77 3°17.68 2.9   13.8 102290 82
2003-05-26 09:37 51°25.81 3°17.74 3.3   13.8 102290 82
2003-05-26 09:38 51°25.86 3°17.79 3.5   13.7 102290 82
2003-05-26 09:39 51°25.9 3°17.84 2.9   13.6 102290 82
2003-05-26 09:40 51°25.91 3°17.86 2.6   13.6 102290 83
2003-05-26 09:41 51°25.89 3°17.88 2.6   13.6 102300 83
2003-05-26 09:42 51°25.87 3°17.89 2.9   13.6 102300 83
2003-05-26 09:43 51°25.86 3°17.89 2.8   13.6 102300 83
2003-05-26 09:44 51°25.85 3°17.89 3.4   13.5 102300 83
2003-05-26 09:45 51°25.84 3°17.88 3.4   13.5 102300 84
2003-05-26 09:46 51°25.84 3°17.82 6.2   13.4 102300 84
2003-05-26 09:47 51°25.81 3°17.55 9.1   13.4 102290 84
2003-05-26 09:48 51°25.8 3°17.23 9.3   13.5 102290 84
2003-05-26 09:49 51°25.79 3°16.9 9.3   13.6 102290 83
2003-05-26 09:50 51°25.78 3°16.57 9.5   13.7 102290 83
2003-05-26 09:51 51°25.77 3°16.25 9.4   13.7 102290 83
2003-05-26 09:52 51°25.75 3°15.92 9.3   13.8 102290 82
2003-05-26 09:53 51°25.74 3°15.59 9.3   13.8 102290 82
2003-05-26 09:54 51°25.72 3°15.25 4.4   13.9 102290 82
2003-05-26 09:55 51°25.7 3°14.9 9.7   13.8 102290 82
2003-05-26 09:56 51°25.68 3°14.54 9.7   13.8 102290 82
2003-05-26 09:57 51°25.66 3°14.19 9.9   13.8 102300 82
2003-05-26 09:58 51°25.64 3°13.84 9.8   13.8 102300 82
2003-05-26 09:59 51°25.62 3°13.48 10   13.8 102300 82
2003-05-26 10:00 51°25.6 3°13.12 10.2   13.8 102290 82
2003-05-26 10:01 51°25.58 3°12.77 9.7   13.9 102290 82
2003-05-26 10:02 51°25.56 3°12.41 10.2   13.7 102290 82
2003-05-26 10:03 51°25.56 3°12.05 10.4   13.7 102290 82
2003-05-26 10:04 51°25.59 3°11.7 10.9   13.7 102290 82
2003-05-26 10:05 51°25.65 3°11.36 11.1   13.6 102290 82
2003-05-26 10:06 51°25.73 3°11.02 10.8   13.6 102300 82
2003-05-26 10:07 51°25.81 3°10.69 11.3   13.6 102300 83
2003-05-26 10:08 51°25.89 3°10.36 10.7   13.5 102300 83
2003-05-26 10:09 51°25.97 3°10.02 10.6   13.6 102300 83
2003-05-26 10:10 51°26.06 3°9.69 10.9   13.5 102310 84
2003-05-26 10:11 51°26.14 3°9.35 10.9   13.5 102300 84
2003-05-26 10:12 51°26.22 3°9.02 10.6   13.5 102300 84
2003-05-26 10:13 51°26.32 3°8.7 10.1   13.5 102300 84
2003-05-26 10:14 51°26.43 3°8.54 6.1   13.4 102320 83
2003-05-26 10:15 51°26.44 3°8.43 5.2   13.4 102320 83
2003-05-26 10:16 51°26.44 3°8.36 4.3   13.2 102320 82
2003-05-26 10:17 51°26.45 3°8.33 3.4   13.2 102320 83
2003-05-26 10:18 51°26.45 3°8.33 3.5   13.2 102320 83
2003-05-26 10:19 51°26.46 3°8.33 3.9   13.2 102330 83
2003-05-26 10:20 51°26.47 3°8.32 3.7   13.1 102320 83
2003-05-26 10:21 51°26.48 3°8.33 3.4   13.1 102320 83
2003-05-26 10:22 51°26.49 3°8.33 3.9   13.1 102330 83
2003-05-26 10:23 51°26.5 3°8.33 4.2   13.1 102320 83
2003-05-26 10:24 51°26.5 3°8.34 3.9   13.1 102320 84
2003-05-26 10:25 51°26.51 3°8.34 3.5   13.2 102320 84
2003-05-26 10:26 51°26.5 3°8.28 5.6   13.3 102330 84
2003-05-26 10:27 51°26.48 3°8.13 6.8   13.2 102320 84
2003-05-26 10:28 51°26.52 3°7.95 7.7   13.2 102320 85
2003-05-26 10:29 51°26.6 3°7.79 7.4   13.3 102320 85
2003-05-26 10:30 51°26.66 3°7.62 7.3   13.4 102320 84
2003-05-26 10:31 51°26.73 3°7.45 8.1   13.5 102320 84
2003-05-26 10:32 51°26.82 3°7.22 9   13.5 102320 84
2003-05-26 10:33 51°26.91 3°6.96 9   13.6 102320 83
2003-05-26 10:34 51°27.01 3°6.69 9.2   13.5 102320 83
2003-05-26 10:35 51°27.11 3°6.44 9.3   13.6 102320 83
2003-05-26 10:36 51°27.22 3°6.18 9.1   13.5 102320 83
2003-05-26 10:37 51°27.33 3°5.93 9.1   13.4 102320 82
2003-05-26 10:38 51°27.43 3°5.67 9   13.5 102320 82
2003-05-26 10:39 51°27.54 3°5.42 8.8   13.5 102320 82
2003-05-26 10:40 51°27.65 3°5.16 8.8   13.5 102320 82
2003-05-26 10:41 51°27.75 3°4.91 9   13.5 102320 82
2003-05-26 10:42 51°27.86 3°4.66 9.1   13.5 102320 82
2003-05-26 10:43 51°27.96 3°4.41 9.1   13.5 102320 82
2003-05-26 10:44 51°28.07 3°4.16 9.3   13.5 102320 82
2003-05-26 10:45 51°28.18 3°3.92 9   13.5 102320 82
2003-05-26 10:46 51°28.28 3°3.67 7.5   13.5 102320 82
2003-05-26 10:47 51°28.28 3°3.53 3.6   13.4 102330 82
2003-05-26 10:48 51°28.28 3°3.49 3.4   13.3 102340 82
2003-05-26 10:49 51°28.3 3°3.48 3.4   13.2 102340 83
2003-05-26 10:50 51°28.31 3°3.48 3.6   13.1 102330 83
2003-05-26 10:51 51°28.33 3°3.49 3.1   13.1 102340 84
2003-05-26 10:52 51°28.34 3°3.49 3.5   13.1 102340 84
2003-05-26 10:53 51°28.35 3°3.5 3.7   13 102340 85
2003-05-26 10:54 51°28.36 3°3.51 3.5   13 102340 85
2003-05-26 10:55 51°28.37 3°3.51 3.3   13 102340 85
2003-05-26 10:56 51°28.38 3°3.52 3.5   13 102340 85
2003-05-26 10:57 51°28.4 3°3.52 3.5   13 102340 85
2003-05-26 10:58 51°28.41 3°3.53 3.5   13 102340 85
2003-05-26 10:59 51°28.42 3°3.54 3.1   13 102340 85
2003-05-26 11:00 51°28.42 3°3.47 4.2   12.9 102340 85
2003-05-26 11:01 51°28.37 3°3.24 7.7   12.9 102330 86
2003-05-26 11:02 51°28.31 3°2.92 8.2   13 102330 86
2003-05-26 11:03 51°28.25 3°2.59 7.8   13.1 102330 86
2003-05-26 11:04 51°28.19 3°2.27 8.1   13.1 102320 86
2003-05-26 11:05 51°28.13 3°1.94 8   13.2 102330 86
2003-05-26 11:06 51°28.07 3°1.61 7.8   13.3 102330 85
2003-05-26 11:07 51°28.01 3°1.28 7.7   13.3 102330 85
2003-05-26 11:08 51°27.95 3°0.94 7.9   13.3 102330 85
2003-05-26 11:09 51°27.89 3°0.61 7.9   13.3 102330 85
2003-05-26 11:10 51°27.83 3°0.27 7.8   13.3 102330 85
2003-05-26 11:11 51°27.77 2°59.94 7.7   13.3 102330 85
2003-05-26 11:12 51°27.71 2°59.6 8   13.3 102330 85
2003-05-26 11:13 51°27.65 2°59.27 7.9   13.3 102330 85
2003-05-26 11:14 51°27.58 2°58.93 7.8   13.3 102330 85
2003-05-26 11:15 51°27.52 2°58.59 7.9   13.3 102330 85
2003-05-26 11:16 51°27.46 2°58.26 7.6   13.3 102330 85
2003-05-26 11:17 51°27.4 2°57.92 7.4   13.3 102340 85
2003-05-26 11:18 51°27.34 2°57.59 7.6   13.3 102340 85
2003-05-26 11:19 51°27.27 2°57.25 7.5   13.4 102330 85
2003-05-26 11:20 51°27.21 2°56.92 7.1   13.3 102340 85
2003-05-26 11:21 51°27.15 2°56.59 7   13.3 102340 85
2003-05-26 11:22 51°27.09 2°56.26 7.3   13.3 102340 85
2003-05-26 11:23 51°27.03 2°55.93 7.5   13.3 102340 85
2003-05-26 11:24 51°26.97 2°55.6 7.6   13.3 102340 85
2003-05-26 11:25 51°26.91 2°55.27 7.4   13.2 102340 85
2003-05-26 11:26 51°26.85 2°54.94 7.5   13.2 102340 85
2003-05-26 11:27 51°26.8 2°54.6 7.5   13.2 102340 85
2003-05-26 11:28 51°26.75 2°54.27 7.6   13.2 102340 85
2003-05-26 11:29 51°26.69 2°53.94 7.6   13.2 102340 85
2003-05-26 11:30 51°26.64 2°53.6 7.6   13.2 102340 85
2003-05-26 11:31 51°26.58 2°53.26 7.6   13.2 102340 85
2003-05-26 11:32 51°26.53 2°52.92 7.5   13.2 102340 85
2003-05-26 11:33 51°26.48 2°52.58 7.4   13.2 102340 85
2003-05-26 11:34 51°26.43 2°52.24 7.7   13.2 102340 86
2003-05-26 11:35 51°26.38 2°51.9 7.7   13.2 102340 86
2003-05-26 11:36 51°26.34 2°51.56 7.9   13.2 102340 86
2003-05-26 11:37 51°26.29 2°51.22 7.7   13.1 102340 86
2003-05-26 11:38 51°26.25 2°50.88 7.5   13.2 102340 86
2003-05-26 11:39 51°26.21 2°50.54 7.6   13.2 102340 86
2003-05-26 11:40 51°26.17 2°50.2 7.7   13.1 102350 86
2003-05-26 11:41 51°26.14 2°49.86 7.5   13.1 102350 86
2003-05-26 11:42 51°26.1 2°49.52 7.5   13.1 102350 86
2003-05-26 11:43 51°26.06 2°49.18 7.7   13.1 102350 86
2003-05-26 11:44 51°26.03 2°48.84 6.1   13.2 102350 86
2003-05-26 11:45 51°26.01 2°48.63 4.3   13.1 102360 86
2003-05-26 11:46 51°26.01 2°48.52 2.8   13 102360 86
2003-05-26 11:47 51°26.02 2°48.49 2.3   12.9 102370 86
2003-05-26 11:48 51°26.02 2°48.49 2.1   12.9 102370 87
2003-05-26 11:49 51°26.02 2°48.48 2   12.9 102370 87
2003-05-26 11:50 51°26.03 2°48.48 2.1   12.9 102370 87
2003-05-26 11:51 51°26.03 2°48.48 1.9   12.9 102370 87
2003-05-26 11:52 51°26.04 2°48.49 1.8   12.9 102370 87
2003-05-26 11:53 51°26.04 2°48.49 1.9   12.9 102370 87
2003-05-26 11:54 51°26.04 2°48.5 1.7   12.9 102380 87
2003-05-26 11:55 51°26.04 2°48.51 1.8   12.9 102370 87
2003-05-26 11:56 51°26.04 2°48.53 1.8   12.8 102370 87
2003-05-26 11:57 51°26.03 2°48.54 1.7   12.8 102380 87
2003-05-26 11:58 51°26.03 2°48.54 1.7   12.8 102380 88
2003-05-26 11:59 51°26.02 2°48.55 1.6   12.9 102380 88
2003-05-26 12:00 51°26.01 2°48.56 1.7   12.9 102380 88
2003-05-26 12:01 51°26.01 2°48.57 1.8   12.9 102380 88
2003-05-26 12:02 51°26 2°48.57 2.1   12.9 102380 88
2003-05-26 12:03 51°25.99 2°48.57 2   12.9 102380 88
2003-05-26 12:04 51°25.92 2°48.48 4.7   12.9 102380 87
2003-05-26 12:05 51°25.84 2°48.22 6.7   12.8 102370 88
2003-05-26 12:06 51°25.77 2°47.91 7.2   12.9 102370 88
2003-05-26 12:07 51°25.7 2°47.59 7.2   13 102370 88
2003-05-26 12:08 51°25.64 2°47.25 6.9   13 102370 87
2003-05-26 12:09 51°25.57 2°46.92 7.1   13.1 102370 87
2003-05-26 12:10 51°25.5 2°46.58 7.5   13.1 102370 87
2003-05-26 12:11 51°25.43 2°46.25 7.4   13.2 102380 86
2003-05-26 12:12 51°25.36 2°45.92 7.1   13.1 102370 86
2003-05-26 12:13 51°25.3 2°45.58 7.6   13.1 102380 86
2003-05-26 12:14 51°25.25 2°45.24 7.5   13.2 102380 86
2003-05-26 12:15 51°25.19 2°44.9 7.5   13.2 102380 86
2003-05-26 12:16 51°25.13 2°44.56 7.4   13.2 102380 85
2003-05-26 12:17 51°25.07 2°44.22 7.4   13.2 102380 85
2003-05-26 12:18 51°25 2°43.89 7.5   13.2 102370 85
2003-05-26 12:19 51°24.93 2°43.55 7.5   13.2 102380 85
2003-05-26 12:20 51°24.86 2°43.22 7.3   13.2 102380 85
2003-05-26 12:21 51°24.8 2°42.88 7.5   13.2 102380 85
2003-05-26 12:22 51°24.73 2°42.55 7   13.3 102380 85
2003-05-26 12:23 51°24.66 2°42.21 7.1   13.1 102380 85
2003-05-26 12:24 51°24.59 2°41.88 7.1   13.1 102380 85
2003-05-26 12:25 51°24.53 2°41.55 7   13.1 102380 85
2003-05-26 12:26 51°24.46 2°41.21 7.2   13.1 102380 85
2003-05-26 12:27 51°24.39 2°40.88 7.2   13 102370 85
2003-05-26 12:28 51°24.31 2°40.55 7.1   13 102380 85
2003-05-26 12:29 51°24.23 2°40.23 7.4   13 102380 85
2003-05-26 12:30 51°24.15 2°39.9 7.2   12.9 102380 85
2003-05-26 12:31 51°24.06 2°39.57 7.3   12.9 102370 86
2003-05-26 12:32 51°23.99 2°39.24 6.6   12.9 102380 86
2003-05-26 12:33 51°23.93 2°38.9 7.7   12.9 102380 86
2003-05-26 12:34 51°23.87 2°38.55 7.5   12.9 102370 86
2003-05-26 12:35 51°23.83 2°38.21 7.4   12.9 102370 86
2003-05-26 12:36 51°23.79 2°37.85 7.9   12.9 102370 86
2003-05-26 12:37 51°23.77 2°37.5 8.1   12.8 102370 85
2003-05-26 12:38 51°23.75 2°37.14 7.9   12.8 102370 85
2003-05-26 12:39 51°23.73 2°36.78 8   12.8 102370 85
2003-05-26 12:40 51°23.73 2°36.42 8   12.8 102370 85
2003-05-26 12:41 51°23.72 2°36.06 7.8   12.8 102370 85
2003-05-26 12:42 51°23.71 2°35.71 7.6   12.9 102380 85
2003-05-26 12:43 51°23.71 2°35.37 7.1   12.9 102380 85
2003-05-26 12:44 51°23.7 2°35.04 7.2   12.9 102380 85
2003-05-26 12:45 51°23.7 2°34.72 6.7   12.9 102380 85
2003-05-26 12:46 51°23.69 2°34.39 7   13 102380 85
2003-05-26 12:47 51°23.69 2°34.08 6.8   13 102370 85
2003-05-26 12:48 51°23.68 2°33.76 6.9   13 102380 85
2003-05-26 12:49 51°23.68 2°33.44 6.8   13 102380 85
2003-05-26 12:50 51°23.67 2°33.13 6.5   13 102380 85
2003-05-26 12:51 51°23.67 2°32.82 6.5   13.1 102380 85
2003-05-26 12:52 51°23.66 2°32.51 6.2   13.1 102380 85
2003-05-26 12:53 51°23.66 2°32.21 6.1   13.1 102390 85
2003-05-26 12:54 51°23.65 2°31.91 5.8   13.1 102380 85
2003-05-26 12:55 51°23.65 2°31.62 5.5   13.1 102380 85
2003-05-26 12:56 51°23.65 2°31.34 5.3   13.1 102380 85
2003-05-26 12:57 51°23.64 2°31.07 4.8   13.1 102390 84
2003-05-26 12:58 51°23.61 2°30.81 4.6   13.1 102380 84
2003-05-26 12:59 51°23.56 2°30.57 3   13.1 102380 84
2003-05-26 13:00 51°23.42 2°30.58 4.6   13.2 102380 84
2003-05-26 13:01 51°23.21 2°30.57 5.4   13.2 102380 84
2003-05-26 13:02 51°22.99 2°30.52 5.5   13.2 102380 84
2003-05-26 13:03 51°22.77 2°30.45 6.2   13.2 102380 83
2003-05-26 13:04 51°22.55 2°30.39 5.8   13.2 102380 83
2003-05-26 13:05 51°22.33 2°30.33 5.5   13.1 102380 83
2003-05-26 13:06 51°22.1 2°30.27 5.7   13.1 102380 83
2003-05-26 13:07 51°21.88 2°30.2 5.9   13.2 102380 83
2003-05-26 13:08 51°21.66 2°30.14 5.7   13.2 102380 83
2003-05-26 13:09 51°21.43 2°30.07 5.8   13.2 102380 83
2003-05-26 13:10 51°21.25 2°30.03 4.4   13.2 102380 83
2003-05-26 13:11 51°21.05 2°29.97 5   13.2 102380 83
2003-05-26 13:12 51°20.84 2°29.92 5.4   13.2 102380 83
2003-05-26 13:13 51°20.63 2°29.86 5.2   13.3 102380 83
2003-05-26 13:14 51°20.42 2°29.81 5   13.3 102380 82
2003-05-26 13:15 51°20.23 2°29.76 3.6   13.3 102380 82
2003-05-26 13:16 51°20.13 2°29.65 2.9   13.3 102380 82
2003-05-26 13:17 51°20.11 2°29.55 2.5   13.2 102380 82
2003-05-26 13:18 51°20.11 2°29.48 2.5   13 102390 82
2003-05-26 13:19 51°20.11 2°29.45 1.6   13 102390 83
2003-05-26 13:21 51°20.11 2°29.48 1.5   13 102390 84
2003-05-26 13:22 51°20.1 2°29.59 2.8   13 102390 84
2003-05-26 13:23 51°20.08 2°29.72 2.7   13 102390 84
2003-05-26 13:23 51°20.06 2°29.82 1.6   13 102380 84
2003-05-26 13:24 51°20.05 2°29.85 2.2   13.1 102390 84
2003-05-26 13:25 51°20.05 2°29.86 2.7   13 102390 84
2003-05-26 13:26 51°20.05 2°29.86 2.5   12.9 102380 84
2003-05-26 13:27 51°20.05 2°29.87 2.4   12.8 102380 84
2003-05-26 13:28 51°20.05 2°29.87 2.8   12.8 102380 84
2003-05-26 13:29 51°20.04 2°29.87 2.6   12.7 102380 85
2003-05-26 13:30 51°20.04 2°29.87 2.5   12.7 102380 85
2003-05-26 13:31 51°20.04 2°29.87 2.7   12.7 102380 85
2003-05-26 13:32 51°20.04 2°29.86 3.1   12.7 102390 85
2003-05-26 13:33 51°20.08 2°29.79 5.3   12.6 102380 85
2003-05-26 13:34 51°20.15 2°29.82 4.4   12.8 102380 86
2003-05-26 13:35 51°20.13 2°29.94 2.6   12.9 102390 86
2003-05-26 13:36 51°20.03 2°30.15 3.6   13.1 102380 86
2003-05-26 13:37 51°19.93 2°30.38 3.5   13.2 102380 86
2003-05-26 13:38 51°19.81 2°30.61 4.5   13.3 102390 85
2003-05-26 13:39 51°19.68 2°30.89 5.2   13.4 102390 85
2003-05-26 13:40 51°19.54 2°31.18 5.4   13.4 102390 84
2003-05-26 13:41 51°19.41 2°31.48 5.8   13.4 102380 84
2003-05-26 13:42 51°19.28 2°31.78 6.3   13.5 102380 83
2003-05-26 13:43 51°19.14 2°32.07 6.4   13.5 102390 83
2003-05-26 13:44 51°19.02 2°32.37 6.6   13.5 102390 82
2003-05-26 13:45 51°18.89 2°32.67 6.5   13.5 102390 82
2003-05-26 13:46 51°18.76 2°32.97 6.2   13.6 102390 82
2003-05-26 13:47 51°18.63 2°33.26 6.4   13.6 102390 82
2003-05-26 13:48 51°18.5 2°33.56 5.9   13.6 102390 82
2003-05-26 13:49 51°18.37 2°33.84 6.1   13.6 102390 82
2003-05-26 13:50 51°18.24 2°34.14 5.9   13.6 102380 82
2003-05-26 13:51 51°18.11 2°34.43 6.3   13.7 102390 82
2003-05-26 13:52 51°17.98 2°34.73 6.2   13.6 102380 81
2003-05-26 13:53 51°17.87 2°35.02 5.6   13.6 102390 82
2003-05-26 13:54 51°17.75 2°35.3 5.5   13.7 102390 81
2003-05-26 13:55 51°17.64 2°35.58 5.1   13.7 102390 81
2003-05-26 13:56 51°17.53 2°35.85 5.6   13.7 102390 81
2003-05-26 13:57 51°17.41 2°36.12 4.7   13.7 102390 81
2003-05-26 13:58 51°17.26 2°36.36 4.5   13.8 102390 81
2003-05-26 13:59 51°17.1 2°36.59 5   13.8 102390 81
2003-05-26 14:00 51°16.92 2°36.78 4.7   13.8 102390 81
2003-05-26 14:01 51°16.75 2°36.85 1.7   13.8 102390 81
2003-05-26 14:02 51°16.64 2°36.84 0.4   13.8 102400 81
2003-05-26 14:03 51°16.57 2°36.84 1.8   14 102400 81
2003-05-26 14:04 51°16.55 2°36.82 2.5   13.9 102400 80
2003-05-26 14:05 51°16.54 2°36.8 2.3   13.8 102400 80
2003-05-26 14:06 51°16.54 2°36.78 2.2   13.8 102400 80
2003-05-26 14:07 51°16.53 2°36.76 2.3   13.7 102400 80
2003-05-26 14:08 51°16.52 2°36.74 2.3   13.7 102400 80
2003-05-26 14:09 51°16.52 2°36.72 2.3   13.6 102400 81
2003-05-26 14:10 51°16.52 2°36.7 1.9   13.5 102400 81
2003-05-26 14:11 51°16.51 2°36.68 1.9   13.4 102410 81
2003-05-26 14:12 51°16.51 2°36.66 2.3   13.3 102400 82
2003-05-26 14:13 51°16.51 2°36.64 2   13.3 102410 82
2003-05-26 14:14 51°16.51 2°36.61 1.9   13.2 102410 83
2003-05-26 14:15 51°16.51 2°36.59 1.8   13.2 102410 83
2003-05-26 14:16 51°16.51 2°36.57 2   13.3 102410 83
2003-05-26 14:17 51°16.52 2°36.54 2.3   13.4 102400 84
2003-05-26 14:18 51°16.54 2°36.52 2.7   13.6 102410 84
2003-05-26 14:19 51°16.57 2°36.51 1.9   13.6 102410 83
2003-05-26 14:20 51°16.59 2°36.51 3   13.7 102410 83
2003-05-26 14:21 51°16.61 2°36.53 2.8   13.8 102410 82
2003-05-26 14:22 51°16.63 2°36.58 3.3   13.9 102400 82
2003-05-26 14:23 51°16.57 2°36.69 1.1   14 102410 81
2003-05-26 14:24 51°16.43 2°36.62 4.5   14 102400 80
2003-05-26 14:25 51°16.22 2°36.51 4.8   13.9 102400 80
2003-05-26 14:26 51°16.02 2°36.39 5   14 102400 80
2003-05-26 14:27 51°15.81 2°36.28 4.8   14 102400 80
2003-05-26 14:28 51°15.6 2°36.16 4.9   14 102400 80
2003-05-26 14:29 51°15.39 2°36.04 4.7   13.9 102400 79
2003-05-26 14:30 51°15.17 2°35.92 5.4   13.9 102390 79
2003-05-26 14:31 51°14.94 2°35.8 5.2   13.9 102400 80
2003-05-26 14:32 51°14.72 2°35.68 5.3   13.9 102400 79
2003-05-26 14:33 51°14.49 2°35.57 5.3   13.9 102400 80
2003-05-26 14:34 51°14.26 2°35.48 5.3   13.8 102400 80
2003-05-26 14:35 51°14.04 2°35.38 5.6   13.8 102400 80
2003-05-26 14:36 51°13.81 2°35.36 5.5   13.8 102410 80
2003-05-26 14:37 51°13.61 2°35.51 5.3   13.7 102410 80
2003-05-26 14:38 51°13.5 2°35.78 6.4   13.7 102400 81
2003-05-26 14:39 51°13.56 2°36.08 8.5   13.7 102390 81
2003-05-26 14:40 51°13.66 2°36.38 8   13.7 102390 80
2003-05-26 14:41 51°13.75 2°36.68 7.4   13.7 102390 80
2003-05-26 14:42 51°13.83 2°36.99 7.8   13.7 102390 80
2003-05-26 14:43 51°13.89 2°37.31 7.8   13.8 102390 80
2003-05-26 14:44 51°13.94 2°37.64 7.6   13.8 102390 80
2003-05-26 14:45 51°13.98 2°37.98 7.7   13.8 102390 80
2003-05-26 14:46 51°14.01 2°38.31 7.4   13.8 102390 80
2003-05-26 14:47 51°14 2°38.65 6.4   13.8 102390 80
2003-05-26 14:48 51°13.83 2°38.84 5.1   13.9 102400 79
2003-05-26 14:49 51°13.6 2°38.79 5.3   13.9 102400 79
2003-05-26 14:50 51°13.38 2°38.63 5.7   13.8 102400 79
2003-05-26 14:51 51°13.17 2°38.43 6   13.9 102400 79
2003-05-26 14:52 51°12.96 2°38.23 5.8   13.9 102400 79
2003-05-26 14:53 51°12.76 2°38.03 5.9   13.8 102400 78
2003-05-26 14:54 51°12.55 2°37.82 6.2   13.9 102400 79
2003-05-26 14:55 51°12.35 2°37.6 6.3   13.9 102400 79
2003-05-26 14:56 51°12.14 2°37.39 6.1   13.8 102400 78
2003-05-26 14:57 51°11.94 2°37.17 6.5   13.8 102400 78
2003-05-26 14:58 51°11.73 2°36.95 6.4   13.8 102400 78
2003-05-26 14:59 51°11.53 2°36.74 6.7   13.7 102400 79
2003-05-26 15:00 51°11.32 2°36.53 6.3   13.7 102400 79
2003-05-26 15:01 51°11.1 2°36.36 6.1   13.7 102400 79
2003-05-26 15:02 51°10.87 2°36.2 5.6   13.7 102400 80
2003-05-26 15:03 51°10.64 2°36.07 5.7   13.7 102400 80
2003-05-26 15:04 51°10.41 2°35.95 5.3   13.7 102400 80
2003-05-26 15:05 51°10.18 2°35.96 4.9   13.8 102400 80
2003-05-26 15:06 51°10 2°36.17 5.9   13.7 102400 80
2003-05-26 15:07 51°9.95 2°36.49 7.7   13.7 102390 80
2003-05-26 15:08 51°10.01 2°36.81 7.9   13.7 102390 80
2003-05-26 15:09 51°10.06 2°37.14 8   13.8 102390 80
2003-05-26 15:10 51°10.12 2°37.46 7.8   13.7 102380 79
2003-05-26 15:11 51°10.17 2°37.79 8.2   13.7 102380 79
2003-05-26 15:12 51°10.24 2°38.1 7.8   13.8 102380 79
2003-05-26 15:13 51°10.32 2°38.41 8.5   13.8 102380 79
2003-05-26 15:14 51°10.41 2°38.72 7.9   13.8 102380 79
2003-05-26 15:15 51°10.47 2°39.04 7.5   13.8 102380 79
2003-05-26 15:16 51°10.52 2°39.37 8   13.8 102380 79
2003-05-26 15:17 51°10.58 2°39.69 8.3   13.8 102380 79
2003-05-26 15:18 51°10.66 2°40.01 8.1   13.8 102380 79
2003-05-26 15:19 51°10.73 2°40.33 8.4   13.8 102380 79
2003-05-26 15:20 51°10.8 2°40.65 8   13.8 102380 79
2003-05-26 15:21 51°10.86 2°40.97 8.1   13.9 102380 79
2003-05-26 15:22 51°10.93 2°41.29 8.2   13.9 102380 79
2003-05-26 15:23 51°10.99 2°41.61 8.1   13.9 102380 79
2003-05-26 15:24 51°11.05 2°41.87 5.5   13.9 102380 79
2003-05-26 15:25 51°11.08 2°42.01 3.7   13.9 102380 79
2003-05-26 15:26 51°11.07 2°42.08 2.9   13.9 102390 79
2003-05-26 15:28 51°11.05 2°42.07 2.1   13.8 102390 79
2003-05-26 15:29 51°11.03 2°42.05 1   13.8 102390 79
2003-05-26 15:30 51°11.01 2°42.03 1.7   14 102390 80
2003-05-26 15:31 51°10.99 2°42.01 3   14.2 102390 78
2003-05-26 15:32 51°10.97 2°41.99 3   14.1 102390 77
2003-05-26 15:33 51°10.95 2°41.95 3.1   14 102390 77
2003-05-26 15:34 51°10.93 2°41.92 3.3   13.9 102380 77
2003-05-26 15:35 51°10.92 2°41.87 3.3   13.8 102390 78
2003-05-26 15:36 51°10.9 2°41.83 3.5   13.9 102390 78
2003-05-26 15:37 51°10.89 2°41.79 3.7   13.8 102390 78
2003-05-26 15:38 51°10.88 2°41.74 2.9   13.7 102390 78
2003-05-26 15:39 51°10.87 2°41.7 3.1   13.7 102390 79
2003-05-26 15:40 51°10.87 2°41.64 5   13.6 102390 79
2003-05-26 15:41 51°10.93 2°41.62 4.2   13.6 102380 79
2003-05-26 15:42 51°10.98 2°41.72 6.7   13.7 102380 79
2003-05-26 15:43 51°11.07 2°41.88 4.7   13.8 102380 79
2003-05-26 15:44 51°11.07 2°41.92 3.5   13.8 102390 79
2003-05-26 15:45 51°11.06 2°41.92 3.5   13.8 102390 78
2003-05-26 15:46 51°11.05 2°41.92 3.8   13.8 102390 79
2003-05-26 15:47 51°11.05 2°41.92 4.2   13.8 102390 79
2003-05-26 15:48 51°11.04 2°41.92 3.5   13.8 102390 79
2003-05-26 15:49 51°11.03 2°41.91 3.6   13.8 102390 79
2003-05-26 15:50 51°11.03 2°41.91 3.3   13.8 102390 79
2003-05-26 15:51 51°11.03 2°42.11 7.5   13.9 102380 80
2003-05-26 15:52 51°11.08 2°42.43 8.5   13.9 102380 79
2003-05-26 15:53 51°11.14 2°42.75 7.8   13.9 102370 79
2003-05-26 15:54 51°11.22 2°43.14 8   13.9 102370 79
2003-05-26 15:55 51°11.28 2°43.48 8   13.9 102370 79
2003-05-26 15:56 51°11.34 2°43.8 8   13.9 102370 79
2003-05-26 15:57 51°11.39 2°44.12 8.3   13.9 102370 79
2003-05-26 15:59 51°11.47 2°44.52 8.3   13.9 102370 79
2003-05-26 16:00 51°11.54 2°44.84 8.2   13.9 102370 79
2003-05-26 16:01 51°11.61 2°45.17 8.5   13.9 102370 79
2003-05-26 16:02 51°11.68 2°45.52 9   13.9 102370 79
2003-05-26 16:03 51°11.75 2°45.86 8.7   13.9 102370 79
2003-05-26 16:04 51°11.82 2°46.2 8.7   13.9 102370 80
2003-05-26 16:05 51°11.88 2°46.54 8.5   13.9 102370 80
2003-05-26 16:06 51°11.95 2°46.88 8.9   13.9 102370 80
2003-05-26 16:07 51°12.02 2°47.22 8.4   13.9 102370 80
2003-05-26 16:08 51°12.1 2°47.56 9.2   13.9 102370 80
2003-05-26 16:10 51°12.22 2°47.9 9.2   13.9 102370 80
2003-05-26 16:11 51°12.31 2°48.21 9   14 102370 80
2003-05-26 16:12 51°12.41 2°48.51 9   14 102370 80
2003-05-26 16:13 51°12.53 2°48.78 9.5   14 102370 80
2003-05-26 16:14 51°12.66 2°49.09 9.3   14.1 102370 80
2003-05-26 16:15 51°12.79 2°49.39 9.6   14.1 102370 80
2003-05-26 16:16 51°12.9 2°49.68 9   14.1 102370 80
2003-05-26 16:17 51°13.01 2°50 9.5   14.1 102370 80
2003-05-26 16:18 51°13.12 2°50.31 9.3   14 102370 79
2003-05-26 16:19 51°13.22 2°50.59 9.2   14.1 102370 79
2003-05-26 16:20 51°13.33 2°50.9 9.5   14.1 102370 79
2003-05-26 16:21 51°13.44 2°51.22 9.8   14.1 102370 80
2003-05-26 16:22 51°13.55 2°51.54 9.9   14.1 102370 79
2003-05-26 16:23 51°13.66 2°51.85 9.8   14 102370 79
2003-05-26 16:25 51°13.78 2°52.2 9.8   14 102370 79
2003-05-26 16:26 51°13.88 2°52.49 9.3   14.1 102370 80
2003-05-26 16:27 51°13.98 2°52.78 9.9   14.1 102370 80
2003-05-26 16:28 51°14.11 2°53.17 7.9   14.1 102370 79
2003-05-26 16:29 51°14.17 2°53.3 5.3   14 102370 79
2003-05-26 16:30 51°14.21 2°53.38 4.8   14 102370 79
2003-05-26 16:32 51°14.24 2°53.41 4.2   14 102380 79
2003-05-26 16:33 51°14.26 2°53.45 4   14.1 102380 79
2003-05-26 16:34 51°14.29 2°53.5 5.3   14.1 102380 79
2003-05-26 16:35 51°14.38 2°53.64 7.4   14.1 102370 79
2003-05-26 16:36 51°14.47 2°53.92 7.3   14.1 102370 79
2003-05-26 16:37 51°14.5 2°54.18 6.4   14.1 102370 79
2003-05-26 16:38 51°14.5 2°54.44 6.8   14.1 102370 79
2003-05-26 16:39 51°14.46 2°54.7 6   14.1 102370 80
2003-05-26 16:40 51°14.4 2°54.93 4.9   14 102370 80
2003-05-26 16:41 51°14.34 2°55.13 3.5   14.1 102380 80
2003-05-26 16:42 51°14.27 2°55.27 2.3   14.2 102380 80